[[{"header":{"parameterUnit":"m.s-1","parameterCategory":1,"la1":30.2991,"la2":30.254,"lo1":-89.0895,"lo2":-89.0444,"dy":0.0017,"dx":0.0017,"nx":28,"ny":28,"refTime":"2025-01-27T09:00:00:Z","depth":0,"parameterNumber":2,"parameterNumberName":"U-component_of_WINDS"},"data":[0,0,0,0,0,0,0,0,0,0,0,0,0,0,0,0,0,0,0,0,0,0,0,0,0,0,0,0,0,0,0,0,0,0,0,0,0,0,0,0,0,0,0,0,0,0,0,0,0,0,0,0,0,0,0,0,0,0,2.344,2.3442,0,2.3569,2.3571,2.3572,2.3585,2.3583,2.3582,2.3581,2.3715,2.372,2.3725,0,0,0,0,0,0,0,0,0,0,0,0,0,2.3208,2.3212,2.344,2.3442,2.3443,2.3569,2.3571,2.3573,2.3585,2.3583,2.3582,2.358,2.3714,2.372,2.3725,0,0,0,0,0,0,0,0,0,0,0,0,0,2.332,2.3213,2.344,2.3465,2.3468,2.3569,2.3571,2.3573,2.3585,2.3583,2.3581,2.3579,2.3712,2.3719,2.3726,2.3812,0,0,2.3748,2.3751,0,0,0,0,0,0,0,0,2.3314,2.3329,2.3459,2.3463,2.3467,2.3559,2.3538,2.3653,2.3586,2.3541,2.3581,2.3578,2.3665,2.3676,2.3705,2.3818,2.3824,2.3749,2.3753,2.3757,2.3759,0,0,0,0,0,0,0,2.3306,2.3323,2.3491,2.3461,2.3466,2.3471,2.3484,2.356,2.3613,2.3545,2.3546,2.3561,2.3667,2.3698,2.3708,2.3826,2.3749,2.3755,2.376,2.3763,2.4019,2.4022,0,0,0,0,0,0,2.3293,2.3317,2.3487,2.3495,2.3384,2.3476,2.3492,2.3531,2.3612,2.3622,2.3562,2.3561,2.3686,2.37,2.3713,2.3821,2.3756,2.3763,2.3767,2.4017,2.402,2.4022,0,0,0,0,0,0,2.3288,2.3308,2.3482,2.3406,2.3429,2.3483,2.3527,2.3535,2.3566,2.3626,2.3635,2.3584,2.3685,2.3703,2.3788,2.3826,2.3767,2.3773,2.4014,2.4018,2.4021,2.4036,0,0,0,0,0,0,2.3281,2.3306,2.3338,2.3407,2.3433,2.3553,2.3529,2.3539,2.3578,2.3578,2.3649,2.3658,2.3685,2.3777,2.3795,2.3834,2.3779,2.4011,2.4016,2.402,2.4032,2.4039,2.4046,0,0,0,0,0,2.3273,2.3337,2.334,2.336,2.3474,2.3555,2.357,2.3599,2.3581,2.3615,2.3654,2.3656,2.3818,2.3785,2.3806,2.3848,2.4009,2.4014,2.402,2.4029,2.4038,2.4045,0,0,0,0,0,0,2.3271,2.3346,2.335,2.3438,2.349,2.3557,2.36,2.3607,2.3666,2.3663,2.3697,2.3713,2.3797,2.3831,2.3793,2.3937,2.3912,2.3922,2.3912,2.3921,2.3927,2.3918,2.3785,0,0,0,0,0,2.3281,2.334,2.3403,2.3474,2.35,2.3546,2.3583,2.36,2.3656,2.3679,2.3723,2.3778,2.3842,2.3883,2.3945,2.4037,2.4054,2.4076,2.4083,2.4088,2.4097,2.4151,2.4162,2.4041,2.4041,2.404,0,0,2.3302,2.335,2.3385,2.3475,2.3518,2.358,2.3564,2.363,2.3677,2.3689,2.3772,2.3807,2.3871,2.3961,2.4002,2.3991,2.4134,2.4095,2.4099,2.4105,2.4158,2.4169,2.418,2.4044,2.4044,2.4043,0,0,2.3372,2.3414,2.3479,2.3523,2.3587,2.3618,2.3633,2.37,2.3724,2.3808,2.3819,2.3876,2.3984,2.403,2.4067,2.4158,2.4164,2.4177,2.4213,2.4265,2.4275,2.4284,2.4318,2.433,2.4185,2.4185,2.4185,0,2.339,2.3483,2.3512,2.3579,2.3619,2.3632,2.37,2.3741,2.3823,2.3851,2.3838,2.3975,2.4019,2.4121,2.4143,2.4172,2.4193,2.4169,2.4271,2.428,2.4289,2.4322,2.4335,2.4186,2.4186,2.4186,2.4186,0,2.3504,2.3568,2.3614,2.3693,2.3738,2.3805,2.3845,2.3888,2.3903,2.3935,2.4022,2.4075,2.4149,2.4174,2.4189,2.4279,2.4271,2.4264,2.4239,2.4301,2.4333,2.4346,2.4188,2.4188,2.4188,2.4187,0,0,2.3576,2.3671,2.3688,2.3725,2.3799,2.385,2.3918,2.399,2.4028,2.4084,2.4144,2.4236,2.4231,2.4273,2.4293,2.4339,2.4411,2.4327,2.4329,2.4342,2.4517,2.4523,2.4537,2.4414,2.4417,2.4419,2.4512,0,2.3656,2.3777,2.3806,2.3911,2.3973,2.3988,2.4048,2.41,2.4133,2.4191,2.4227,2.4293,2.4279,2.4306,2.4352,2.4392,2.4446,2.4386,2.4472,2.4475,2.4457,2.4553,2.4559,2.4645,2.4525,2.4527,2.4528,0,2.3765,2.3825,2.3936,2.4004,2.4031,2.4084,2.4154,2.4209,2.427,2.4291,2.4339,2.4355,2.4429,2.44,2.4504,2.4462,2.45,2.4525,2.4529,2.4539,2.4506,2.4568,2.4672,2.4686,2.4548,2.4546,2.4545,0,2.381,2.3917,2.3999,2.403,2.411,2.4148,2.4184,2.4243,2.4285,2.4346,2.4375,2.4444,2.4482,2.4536,2.4572,2.4547,2.4673,2.4647,2.4694,2.4694,2.4721,2.4719,2.4835,2.4742,2.4742,2.4742,2.4742,0,2.3897,2.3965,2.402,2.407,2.4147,2.4181,2.4257,2.4293,2.4346,2.4404,2.4421,2.4476,2.4518,2.458,2.4608,2.4691,2.4707,2.4728,2.4735,2.4727,2.4725,2.4753,2.4748,2.4745,2.4745,2.4744,2.4743,0,2.3959,2.3999,2.4089,2.4158,2.4178,2.4232,2.4292,2.4342,2.4376,2.445,2.4469,2.4522,2.4595,2.4636,2.4727,2.4747,2.484,2.4843,2.4819,2.4823,2.4869,2.4864,2.5007,2.5029,2.4921,2.4922,2.4923,0,2.4013,2.4066,2.4142,2.4182,2.4219,2.4283,2.4327,2.4363,2.4408,2.4483,2.4525,2.4599,2.466,2.4777,2.4824,2.4895,2.4901,2.4947,2.4912,2.4904,2.4905,2.4901,2.4908,2.4953,2.4954,2.4955,2.4955,0,2.4105,2.4123,2.4185,2.4254,2.4306,2.4363,2.4419,2.4451,2.4497,2.4547,2.4622,2.467,2.4764,2.4839,2.4914,2.4952,2.4963,2.4966,2.4981,2.4974,2.4959,2.497,2.4838,2.4962,2.4962,2.4961,2.4961,2.4961,2.4167,2.4215,2.4277,2.4346,2.4392,2.4445,2.4496,2.4537,2.46,2.4679,2.4697,2.4777,2.4839,2.4941,2.4982,2.5046,2.5038,2.5059,2.5065,2.507,2.5073,2.4948,2.506,2.506,2.5059,2.5059,2.5059,0,2.4261,2.4302,2.4365,2.4444,2.4499,2.4503,2.4566,2.4613,2.4683,2.474,2.48,2.4888,2.4961,2.5014,2.5089,2.5131,2.5137,2.5149,2.5147,2.5156,2.5075,2.5055,2.5143,2.5143,2.5143,2.5143,2.5143,2.5143,2.4317,2.44,2.4425,2.4533,2.4573,2.4652,2.4688,2.4737,2.4783,2.488,2.4941,2.4975,2.5032,2.5111,2.5179,2.5193,2.5221,2.5233,2.5248,2.5171,2.5162,2.5153,2.5135,2.5238,2.5238,2.5324,2.5325,2.5325]},{"header":{"parameterUnit":"m.s-1","parameterCategory":1,"la1":30.2991,"la2":30.254,"lo1":-89.0895,"lo2":-89.0444,"dy":0.0017,"dx":0.0017,"nx":28,"ny":28,"refTime":"2025-01-27T09:00:00:Z","depth":0,"parameterNumber":3,"parameterNumberName":"V-component_of_WINDS"},"data":[0,0,0,0,0,0,0,0,0,0,0,0,0,0,0,0,0,0,0,0,0,0,0,0,0,0,0,0,0,0,0,0,0,0,0,0,0,0,0,0,0,0,0,0,0,0,0,0,0,0,0,0,0,0,0,0,0,0,-0.6972,-0.697,0,-0.6844,-0.6843,-0.6841,-0.6826,-0.6827,-0.6828,-0.683,-0.6688,-0.6683,-0.6678,0,0,0,0,0,0,0,0,0,0,0,0,0,-0.7192,-0.7188,-0.6972,-0.697,-0.6969,-0.6844,-0.6843,-0.6841,-0.6826,-0.6827,-0.6829,-0.683,-0.669,-0.6684,-0.6678,0,0,0,0,0,0,0,0,0,0,0,0,0,-0.7083,-0.7187,-0.6972,-0.6946,-0.6943,-0.6845,-0.6842,-0.684,-0.6825,-0.6827,-0.6829,-0.6831,-0.6692,-0.6684,-0.6677,-0.6593,0,0,-0.6654,-0.6651,0,0,0,0,0,0,0,0,-0.7089,-0.7075,-0.6952,-0.6948,-0.6944,-0.6853,-0.6868,-0.6757,-0.6825,-0.6869,-0.683,-0.6832,-0.6741,-0.6729,-0.6701,-0.6586,-0.658,-0.6654,-0.6649,-0.6646,-0.6644,0,0,0,0,0,0,0,-0.7097,-0.708,-0.6921,-0.695,-0.6945,-0.6938,-0.6924,-0.6847,-0.6795,-0.6866,-0.6864,-0.685,-0.6739,-0.6708,-0.6697,-0.6578,-0.6654,-0.6647,-0.6643,-0.664,-0.6384,-0.6382,0,0,0,0,0,0,-0.7111,-0.7087,-0.6925,-0.6917,-0.7023,-0.6932,-0.6917,-0.688,-0.6796,-0.6786,-0.6849,-0.685,-0.672,-0.6706,-0.6692,-0.6586,-0.6646,-0.6639,-0.6635,-0.6386,-0.6383,-0.6381,0,0,0,0,0,0,-0.7115,-0.7096,-0.693,-0.7002,-0.698,-0.6926,-0.6885,-0.6876,-0.6846,-0.6784,-0.6773,-0.6827,-0.6721,-0.6703,-0.6618,-0.6581,-0.6636,-0.6629,-0.6389,-0.6385,-0.6382,-0.6373,0,0,0,0,0,0,-0.7122,-0.7098,-0.7068,-0.7001,-0.6976,-0.6861,-0.6882,-0.6873,-0.6834,-0.6835,-0.6761,-0.675,-0.6721,-0.6629,-0.661,-0.6571,-0.6623,-0.6392,-0.6387,-0.6383,-0.6377,-0.637,-0.6364,0,0,0,0,0,-0.713,-0.7069,-0.7067,-0.7047,-0.6938,-0.6859,-0.6844,-0.6815,-0.6832,-0.6799,-0.6759,-0.6753,-0.6589,-0.662,-0.6599,-0.6557,-0.6394,-0.6389,-0.6384,-0.6379,-0.6371,-0.6364,0,0,0,0,0,0,-0.7129,-0.706,-0.7056,-0.6973,-0.6922,-0.6857,-0.6814,-0.6807,-0.6748,-0.6751,-0.6713,-0.6697,-0.6612,-0.6577,-0.6613,-0.647,-0.6492,-0.6483,-0.6496,-0.6488,-0.6482,-0.6491,-0.6617,0,0,0,0,0,-0.712,-0.7065,-0.7006,-0.6937,-0.6913,-0.6868,-0.6833,-0.6815,-0.6759,-0.6737,-0.669,-0.6633,-0.6569,-0.6527,-0.6464,-0.6372,-0.6354,-0.6333,-0.6327,-0.6322,-0.6313,-0.6259,-0.6248,-0.6364,-0.6364,-0.6364,0,0,-0.7099,-0.7054,-0.7021,-0.6936,-0.6895,-0.6835,-0.685,-0.6786,-0.674,-0.6726,-0.6643,-0.6607,-0.6541,-0.6451,-0.641,-0.6419,-0.6277,-0.6315,-0.6312,-0.6305,-0.6252,-0.6241,-0.6231,-0.636,-0.6361,-0.6361,0,0,-0.703,-0.6992,-0.693,-0.6889,-0.6828,-0.6799,-0.6784,-0.6719,-0.6695,-0.6613,-0.66,-0.6543,-0.6433,-0.6386,-0.6348,-0.6261,-0.6252,-0.6242,-0.6208,-0.6156,-0.6146,-0.6138,-0.6104,-0.6092,-0.6234,-0.6233,-0.6233,0,-0.701,-0.6924,-0.6898,-0.6835,-0.6797,-0.6785,-0.6719,-0.668,-0.6599,-0.6571,-0.6584,-0.6446,-0.64,-0.6298,-0.6277,-0.6248,-0.6226,-0.6249,-0.6151,-0.6142,-0.6133,-0.61,-0.6088,-0.6232,-0.6233,-0.6233,-0.6233,0,-0.6901,-0.6841,-0.6798,-0.6724,-0.6681,-0.6617,-0.6578,-0.6537,-0.6523,-0.6491,-0.6405,-0.6351,-0.6276,-0.6251,-0.6235,-0.6146,-0.6153,-0.6159,-0.618,-0.6122,-0.609,-0.6077,-0.6231,-0.6231,-0.6232,-0.6232,0,0,-0.6826,-0.6741,-0.6725,-0.669,-0.6622,-0.6573,-0.6507,-0.6437,-0.6401,-0.6346,-0.6287,-0.6195,-0.62,-0.6156,-0.6135,-0.6089,-0.602,-0.61,-0.6097,-0.6084,-0.5914,-0.5908,-0.5894,-0.6015,-0.6013,-0.6011,-0.5919,0,-0.6747,-0.6633,-0.6609,-0.6509,-0.6451,-0.6438,-0.638,-0.633,-0.6298,-0.6241,-0.6205,-0.614,-0.6152,-0.6126,-0.608,-0.6038,-0.5985,-0.6045,-0.5955,-0.5953,-0.597,-0.5878,-0.5872,-0.5788,-0.5906,-0.5904,-0.5903,0,-0.6639,-0.6585,-0.648,-0.6418,-0.6393,-0.6342,-0.6275,-0.6223,-0.6164,-0.6144,-0.6096,-0.6079,-0.6006,-0.6034,-0.593,-0.5972,-0.5933,-0.5907,-0.5903,-0.5891,-0.5922,-0.586,-0.576,-0.5747,-0.5883,-0.5885,-0.5886,0,-0.6591,-0.6492,-0.6416,-0.6387,-0.6314,-0.6278,-0.6245,-0.6189,-0.6148,-0.6088,-0.6061,-0.5992,-0.5954,-0.59,-0.5864,-0.5888,-0.5762,-0.5787,-0.5739,-0.574,-0.571,-0.5712,-0.56,-0.5692,-0.5692,-0.5692,-0.5692,0,-0.6504,-0.6439,-0.6394,-0.6346,-0.6273,-0.6244,-0.617,-0.6137,-0.6087,-0.603,-0.6015,-0.5961,-0.5918,-0.5857,-0.5828,-0.5745,-0.5728,-0.5707,-0.5699,-0.5707,-0.5709,-0.5679,-0.5682,-0.5689,-0.5689,-0.569,-0.5691,0,-0.6437,-0.6404,-0.632,-0.6259,-0.6241,-0.6189,-0.6135,-0.6086,-0.6056,-0.5983,-0.5965,-0.5914,-0.5842,-0.5802,-0.571,-0.569,-0.5596,-0.5593,-0.5617,-0.5613,-0.5566,-0.557,-0.5428,-0.5406,-0.5516,-0.5515,-0.5514,0,-0.6382,-0.6332,-0.6266,-0.6229,-0.6196,-0.6136,-0.6095,-0.6064,-0.6021,-0.595,-0.5909,-0.5837,-0.5777,-0.5661,-0.5613,-0.5542,-0.5535,-0.5491,-0.5524,-0.5532,-0.553,-0.5533,-0.5526,-0.5483,-0.5483,-0.5482,-0.5481,0,-0.6286,-0.6273,-0.6216,-0.6154,-0.6106,-0.6054,-0.6002,-0.5972,-0.5931,-0.5883,-0.5811,-0.5765,-0.5673,-0.5599,-0.5524,-0.5486,-0.5474,-0.5472,-0.5456,-0.5461,-0.5476,-0.5464,-0.5597,-0.5474,-0.5475,-0.5475,-0.5476,-0.5476,-0.6221,-0.6176,-0.6122,-0.6059,-0.6018,-0.597,-0.5921,-0.5885,-0.5826,-0.575,-0.5735,-0.5657,-0.5597,-0.5496,-0.5456,-0.5392,-0.54,-0.5378,-0.5372,-0.5366,-0.5363,-0.5489,-0.5378,-0.5378,-0.5379,-0.5379,-0.5379,0,-0.6122,-0.6087,-0.603,-0.596,-0.5909,-0.5909,-0.5851,-0.5807,-0.5741,-0.5688,-0.563,-0.5545,-0.5474,-0.5422,-0.5348,-0.5306,-0.5299,-0.5287,-0.5288,-0.5279,-0.5362,-0.5381,-0.5294,-0.5294,-0.5294,-0.5294,-0.5294,-0.5294,-0.6064,-0.5987,-0.5967,-0.5868,-0.5832,-0.5759,-0.5726,-0.568,-0.5638,-0.5545,-0.5487,-0.5455,-0.5401,-0.5323,-0.5256,-0.5242,-0.5213,-0.5202,-0.5187,-0.5264,-0.5273,-0.5282,-0.53,-0.5197,-0.5197,-0.5109,-0.5108,-0.5107]}]]